Overview Statistics Trail Chart Weather Telemetry Raw packets
 

This is the latest recevied weather packets stored in our database for station/object SR8WXL-13. If no packets are shown the sender has not sent any weather packets the latest 10 day(s).

<< 1 2 3 4 5 6 >>
Time Temp. Humidity Pressure Rain* Wind** Luminosity Snow
1788610828 21.11° C 56% 1031.1 hPa 0 mm - - -
1788610081 20° C 61% 1031.3 hPa 0 mm - - -
1788609353 20° C 66% 1031.3 hPa 0 mm - - -
1788608559 20° C 67% 1031.4 hPa 0 mm - - -
1788607826 20° C 67% 1031.1 hPa 0 mm - - -
1788607059 18.89° C 70% 1031.6 hPa 0 mm - - -
1788606333 20° C 72% 1031.7 hPa 0 mm - - -
1788605586 18.89° C 78% 1031.7 hPa 0 mm - - -
1788604738 17.22° C 84% 1031.6 hPa 0 mm - - -
1788603884 17.22° C 84% 1031.6 hPa 0 mm - - -
1788602983 16.11° C 86% 1031.5 hPa 0 mm - - -
1788602137 16.11° C 85% 1031.2 hPa 0 mm - - -
1788601408 16.11° C 85% 1030.8 hPa 0 mm - - -
1788600505 16.11° C 86% 1031.2 hPa 0 mm - - -
1788599610 16.11° C 86% 1030.2 hPa 0.25 mm - - -
1788598794 15° C 88% 1031.6 hPa 0.25 mm - - -
1788597909 15° C 88% 1031 hPa 0.25 mm - - -
1788597025 15° C 87% 1031 hPa 0.25 mm - - -
1788596189 16.11° C 85% 1031 hPa 0 mm - - -
1788595387 16.11° C 83% 1030.6 hPa 0 mm - - -
1788594506 17.22° C 72% 1030.5 hPa 0 mm - - -
1788593765 17.22° C 69% 1029.3 hPa 0 mm - - -
1788593004 17.78° C 67% 1030.1 hPa 0 mm - - -
1788592271 17.78° C 68% 1030.2 hPa 0 mm - - -
1788591409 17.78° C 69% 1029.9 hPa 0 mm - - -

* Rain latest hour (hover to see other rain measurements)
** Current wind speed in m/s (hover to see current wind gust speed)